263  
SXUS52 KCHS 271327  
OSOCHS  
 
MARINE OBSERVATIONS  
NATIONAL WEATHER SERVICE CHARLESTON SC  
900 AM EDT TUE JUN 27 2017  
   
..DOWNTOWN CHARLESTON AND HARBOR
 
 
 
CITY SKY/WX TMP DP RH WIND PRES REMARKS  
WATERFRONT PRK N/A 78 68 71 VRB2 30.01S  
   
..LAKE MOULTRIE
 
 
 
CITY SKY/WX TMP DP RH WIND PRES REMARKS  
PINOPOLIS N/A 79 68 69 VRB2 29.97R  
   
..LAKE AND SUPPLEMENTAL COASTAL OBSERVATIONS
 
 
 
STATION/POSITION TIME TEMP WIND PRES WAVE SWELL  
AIR SEA DIR/SP/G HT/PER HT/PER/DIR  
(UTC) (F) (DEG/KT/KT) (MB) (FT/S) (FT/S/D)  
FORT PULASKI 1300 78 84 30/ 3/ 4 1017.5  
SAPELO ISLAND 1300 79 20/ 6 1017.0  
WINYAH BAY 1245 76 330/ 2 1017.0S  
LAKE MURRAY 1320 77 280/ 2/ 4 1016.6S  
ACE BASIN NERRS 1245 79 CALM 1017.0S  
 
   
..C-MAN AND BUOY OBSERVATIONS
 
 
 
STATION/POSITION TIME TEMP WIND PRES WAVE SWELL  
AIR SEA DIR/SP/G HT/PER HT/PER/DIR  
(UTC) (F) (DEG/KT/KT) (MB) (FT/S) (FT/S/D)  
BUOY 41004 1310 79 81 30/ 10/ 12 1016.8  
BUOY 41008 1250 76 81 110/ 8/ 10 1016.7R 2/ 8 2/130/ 8  
FOLLY BEACH CMAN 1300 79 360/ 3/ 4 1017.7R  
CAPERS NS BUOY 1308 85 83 20/ 8/ 10 1017.1R  
FRIPP NS BUOY 1308 80 83 50/ 6/ 8 1016.8R  
5E ST. MARYS GA 1300 80 N/A 2/ 8  
 
 
STATION/POSITION TIME TEMP WIND PRES WAVE SWELL  
AIR SEA DIR/SP/G HT/PER HT/PER/DIR  
(UTC) (F) (DEG/KT/KT) (MB) (FT/S) (FT/S/D)  
FRYING PAN BUOY 1310 78 80 350/ 10/ 12 1016.8  
BUOY 41025 1250 77 81 350/ 8/ 10 1016.1F 2/ 8 2/ 70/ 8  
CAPE LOOKOUT NC 1300 77 330/ 7/ 9 1016.4S  
BUOY 41002 1250 76 80 240/ 12/ 14 1016.7R 4/ 6 2/130/ 7  
BUOY 41010 1310 83 83 210/ 12/ 14 1016.5  
ST AUGUSTINE FL 1300 76 78 360/ 5/ 6 1017.0R  
 

 
 
 
CLICK HERE TO GO TO PREVIOUS BULLETINS.

The Nexlab SC Page
The Nexlab GA Page Main Text Page